Location: Calberlah
(52.4230°N, 10.6240°E)
Time: 00:55:21
(UTC+00:00)

ARIANE 6 FM1 Upper Stage - Pass Details

Date: 19 May 2025
Orbit: 530 x 611 km, 62.0° (Epoch: 22 June)

Event Time Altitude Azimuth Distance (km) Brightness Sun altitude
Rises 21:58:37 0° 259° (W) 2,672 6.2 -15.8°
Reaches altitude 10° 22:00:58 10° 270° (W) 1,788 5.4 -15.9°
Maximum altitude 22:04:38 33° 336° (NNW) 915 4.4 -16.0°
Drops below altitude 10° 22:08:22 10° 42° (NE) 1,819 5.7 -16.2°
Sets 22:10:46 0° 52° (NE) 2,727 6.5 -16.3°
